Date String (YYYY-MM-DD hh:mm:ss) UTC,Instrument flags,Ambient pressure (hPa),Sample flow (lpm),Bypass flow (lpm),Sample temperature (°C),Ambient temperature (°C),ASC tube jacket temperature (°C),LED temperature (°C),Box temperature (°C),Sample RH (%),Span deviation,Mass concentration (μg/m³),Mass concentration (μg/m³),Mass concentration (μg/m³)
DateTimeUTC,F1_M11,P_M11,Q1_M11,Q2_M11,T1_M11,T2_M11,T3_M11,T4_M11,T5_M11,U1_M11,ZSPAN_M11,X0_M11,X2_M11,X1_M11
2022-02-24 10:00:00,,0820.2,5.02,0.00,22.3,21.3,00.0,31.4,23.9,04.8,-000.2,0009.78,0006.12,0005.61
2022-02-24 10:01:00,,0819.9,5.00,0.00,22.3,21.1,00.0,31.4,23.8,04.8,0000.3,0009.72,0006.06,0005.57
2022-02-24 10:02:00,,0819.9,5.00,0.00,22.3,21.7,00.0,31.4,23.9,04.8,0000.7,0009.64,0006.00,0005.52
2022-02-24 10:03:00,,0819.9,4.99,0.00,22.4,22.5,00.0,31.4,24.1,04.8,0001.3,0009.55,0005.94,0005.47
2022-02-24 10:04:00,,0819.9,5.00,0.00,22.5,23.2,00.0,31.5,24.4,04.7,0001.1,0009.54,0005.92,0005.42
2022-02-24 10:05:00,,0820.0,5.00,0.00,22.6,23.1,00.0,31.5,24.5,04.7,0001.2,0009.47,0005.88,0005.35
2022-02-24 10:06:00,,0820.0,5.00,0.00,22.6,22.5,00.0,31.5,24.4,04.7,0000.9,0009.45,0005.83,0005.30
2022-02-24 10:07:00,,0819.9,4.99,0.00,22.5,22.1,00.0,31.5,24.3,04.7,0001.3,0009.29,0005.76,0005.25
2022-02-24 10:08:00,,0819.9,5.02,0.00,22.5,21.8,00.0,31.4,24.2,04.7,0001.7,0009.17,0005.70,0005.21
2022-02-24 10:09:00,,0819.8,5.00,0.00,22.4,21.6,00.0,31.4,24.1,04.7,0001.9,0008.86,0005.62,0005.17
2022-02-24 10:10:00,,0819.9,4.98,0.00,22.4,21.3,00.0,31.4,24.0,04.8,0002.1,0008.66,0005.57,0005.14
2022-02-24 10:11:00,,0819.9,5.01,0.00,22.3,21.0,00.0,31.4,23.9,04.8,0002.2,0008.42,0005.56,0005.11
2022-02-24 10:12:00,,0820.0,4.99,0.00,22.2,21.1,00.0,31.3,23.8,04.8,0002.2,0008.67,0005.57,0005.10
2022-02-24 10:13:00,,0819.9,4.99,0.00,22.3,21.9,00.0,31.4,24.0,04.8,0002.6,0008.98,0005.58,0005.09
2022-02-24 10:14:00,,0819.9,5.00,0.00,22.4,22.7,00.0,31.4,24.2,04.7,0002.4,0009.04,0005.59,0005.09
2022-02-24 10:15:00,,0819.9,5.02,0.00,22.5,22.8,00.0,31.4,24.3,04.7,0003.2,0009.06,0005.59,0005.09
2022-02-24 10:16:00,,0819.9,4.98,0.00,22.5,22.3,00.0,31.4,24.3,04.7,0003.8,0009.08,0005.58,0005.08
2022-02-24 10:17:00,,0819.9,5.02,0.00,22.4,21.8,00.0,31.4,24.1,04.7,0004.0,0009.13,0005.58,0005.08
2022-02-24 10:18:00,,0819.9,5.00,0.00,22.3,21.5,00.0,31.4,24.0,04.7,0003.7,0009.12,0005.58,0005.07
2022-02-24 10:19:00,,0819.9,5.00,0.00,22.3,21.2,00.0,31.3,23.9,04.7,0003.5,0009.19,0005.59,0005.06
2022-02-24 10:20:00,,0819.9,4.99,0.00,22.2,20.9,00.0,31.3,23.7,04.8,0002.8,0008.88,0005.54,0005.03
2022-02-24 10:21:00,,0819.9,5.00,0.00,22.2,21.3,00.0,31.3,23.7,04.8,0002.3,0008.82,0005.52,0005.01
2022-02-24 10:22:00,,0819.9,5.01,0.00,22.3,22.2,00.0,31.3,24.0,04.7,0001.8,0008.78,0005.48,0004.99
2022-02-24 10:23:00,,0819.9,5.00,0.00,22.4,23.0,00.0,31.4,24.3,04.7,0001.3,0008.64,0005.47,0004.96
2022-02-24 10:24:00,,0819.9,4.99,0.00,22.5,23.1,00.0,31.4,24.4,04.6,0001.1,0008.39,0005.46,0004.94
2022-02-24 10:25:00,,0819.9,5.01,0.00,22.5,22.6,00.0,31.4,24.3,04.6,0000.7,0008.43,0005.45,0004.92
2022-02-24 10:26:00,,0819.9,4.99,0.00,22.4,22.1,00.0,31.4,24.2,04.6,0000.1,0008.34,0005.39,0004.89
2022-02-24 10:27:00,,0819.9,5.01,0.00,22.4,21.7,00.0,31.3,24.0,04.7,-000.0,0008.24,0005.34,0004.85
2022-02-24 10:28:00,,0820.0,4.99,0.00,22.3,21.4,00.0,31.3,23.9,04.7,0000.0,0008.13,0005.31,0004.82
2022-02-24 10:29:00,,0820.0,5.01,0.00,22.2,21.2,00.0,31.3,23.8,04.7,0000.0,0008.14,0005.31,0004.81
2022-02-24 10:30:00,,0820.0,4.99,0.00,22.2,21.1,00.0,31.3,23.8,04.7,0000.0,0008.13,0005.27,0004.79
2022-02-24 10:31:00,,0820.0,5.01,0.00,22.2,21.9,00.0,31.3,23.9,04.7,0000.9,0008.23,0005.29,0004.78
2022-02-24 10:32:00,,0820.0,4.99,0.00,22.3,22.6,00.0,31.3,24.1,04.6,0001.6,0008.28,0005.30,0004.77
2022-02-24 10:33:00,,0819.9,5.00,0.00,22.5,23.3,00.0,31.4,24.4,04.6,0000.0,0008.31,0005.29,0004.76
2022-02-24 10:34:00,,0819.9,4.99,0.00,22.6,23.1,00.0,31.4,24.4,04.6,0001.7,0008.32,0005.26,0004.73
2022-02-24 10:35:00,,0819.9,5.01,0.00,22.5,22.6,00.0,31.4,24.4,04.6,0001.9,0008.31,0005.23,0004.70
2022-02-24 10:36:00,,0819.9,5.00,0.00,22.5,22.2,00.0,31.4,24.2,04.6,0001.6,0008.23,0005.18,0004.66
2022-02-24 10:37:00,,0819.9,4.99,0.00,22.4,21.8,00.0,31.4,24.1,04.6,0000.3,0008.26,0005.18,0004.62
2022-02-24 10:38:00,,0819.9,5.00,0.00,22.4,21.6,00.0,31.4,24.0,04.6,0000.4,0008.33,0005.19,0004.60
2022-02-24 10:39:00,,0819.9,5.01,0.00,22.3,21.3,00.0,31.3,23.9,04.6,0000.0,0008.30,0005.15,0004.58
2022-02-24 10:40:00,,0819.9,5.00,0.00,22.2,21.1,00.0,31.3,23.8,04.6,-000.1,0008.75,0005.12,0004.55
2022-02-24 10:41:00,,0819.9,5.00,0.00,22.2,21.4,00.0,31.3,23.8,04.6,0000.0,0008.85,0005.11,0004.51
2022-02-24 10:42:00,,0819.9,5.00,0.00,22.3,22.2,00.0,31.3,24.0,04.6,0000.0,0008.76,0005.07,0004.48
2022-02-24 10:43:00,,0819.9,4.99,0.00,22.4,22.9,00.0,31.4,24.3,04.5,0000.0,0008.73,0005.04,0004.44
2022-02-24 10:44:00,,0819.8,5.01,0.00,22.5,22.9,00.0,31.4,24.4,04.5,0000.0,0009.06,0005.00,0004.40
2022-02-24 10:45:00,,0819.9,5.00,0.00,22.5,22.6,00.0,31.4,24.4,04.5,0000.0,0009.28,0004.96,0004.39
2022-02-24 10:46:00,,0819.9,5.00,0.00,22.5,22.2,00.0,31.4,24.3,04.5,0000.0,0009.14,0004.91,0004.38
2022-02-24 10:47:00,,0819.9,5.00,0.00,22.4,21.8,00.0,31.4,24.1,04.5,0000.0,0009.20,0004.91,0004.37
2022-02-24 10:48:00,,0819.9,4.99,0.00,22.4,21.6,00.0,31.4,24.0,04.5,0000.0,0009.20,0004.90,0004.37
2022-02-24 10:49:00,,0819.9,5.00,0.00,22.3,21.4,00.0,31.3,24.0,04.5,0000.0,0009.18,0004.88,0004.37
2022-02-24 10:50:00,,0819.9,5.01,0.00,22.3,21.2,00.0,31.3,23.9,04.5,0000.0,0009.21,0004.88,0004.36
2022-02-24 10:51:00,,0819.8,5.00,0.00,22.2,21.3,00.0,31.3,23.8,04.6,0000.0,0009.00,0004.84,0004.36
2022-02-24 10:52:00,,0819.8,4.99,0.00,22.3,22.1,00.0,31.3,24.0,04.5,0000.0,0008.99,0004.84,0004.36
2022-02-24 10:53:00,,0819.8,5.01,0.00,22.4,22.9,00.0,31.4,24.3,04.5,0000.0,0008.99,0004.84,0004.37
2022-02-24 10:54:00,,0819.8,5.00,0.00,22.6,23.4,00.0,31.4,24.5,04.5,0000.0,0008.97,0004.82,0004.37
2022-02-24 10:55:00,,0819.9,4.99,0.00,22.6,23.1,00.0,31.4,24.6,04.5,0000.0,0008.57,0004.83,0004.38
2022-02-24 10:56:00,,0819.9,5.00,0.00,22.6,22.7,00.0,31.4,24.5,04.5,0000.0,0008.36,0004.84,0004.38
2022-02-24 10:57:00,,0819.9,5.00,0.00,22.6,22.3,00.0,31.4,24.3,04.5,0000.0,0008.33,0004.83,0004.38
2022-02-24 10:58:00,,0819.9,5.00,0.00,22.5,22.0,00.0,31.4,24.2,04.5,0000.0,0008.15,0004.81,0004.38
2022-02-24 10:59:00,,0819.8,5.01,0.00,22.5,21.7,00.0,31.4,24.2,04.5,0000.0,0008.13,0004.78,0004.38
